Torna al catalogo

STARLINK-37761

AttivoComunicazioniVLEO
NORAD 69200·PAYLOAD·🇺🇸 United States

Lanciato May 25, 2026 da Cape Canaveral Space Force Station

Loading…

Prossimi Passaggi (prossime 24 ore)

TLE

AggiornatoSource: CelesTrak SupGP

Epoca: Sep 14, 2026, 22:47 UTC

1 69200C 26114U   26257.94979167 -.00068256  00000+0 -20168-2 0  2579
2 69200  53.1573 139.6009 0001317  88.2368 326.3667 15.34422345    15

Traccia STARLINK-37761 in tempo reale con AllMySat

Download on the App Store